Home > Weather > Beaumont > Past weeks

Flag for USA Past Weather in Beaumont, Texas, USA — Yesterday and Last 2 Weeks

Now
83 °F

Sunny.


Feels Like: 90 °F
Forecast: 76 / 92 °F
Wind: 3 mph from Southwest

Location: Jefferson County Airport

Current Time: Jun 25, 2016 at 8:13:06 PM

Latest Report: Jun 25, 2016 at 7:53 PM


Visibility: 10 mi

Pressure: 30.02 "Hg

Humidity: 77%

Dew Point: 75 °F

Location of BeaumontLocation

Past Weather in Beaumont — Graph

°F

Beaumont Temperature Yesterday

Maximum temperature yesterday: 89 °F (at 4:53 PM)
Minimum temperature yesterday: 74 °F (at 2:53 AM)
Average temperature yesterday: 82 °F

High & Low Weather Summary for the Past Weeks

 TemperatureHumidityPressure
High97 °F (Jun 18, 3:53 PM)97% (Jun 16, 4:53 AM)30.20 "Hg (Jun 16, 4:53 AM)
Low73 °F (Jun 18, 6:53 PM)46% (Jun 18, 3:53 PM)29.87 "Hg (Jun 14, 7:53 PM)
Average83 °F79%30.02 "Hg
* Reported Jun 10 6:53 PM — Jun 25 6:53 PM, Beaumont, Weather by CustomWeather, © 2016

Note: Actual official high and low records may vary slightly from our data, if they occured in-between our weather recording intervals... More about our weather records

Advertising

Beaumont Weather History for the Previous 24 Hours

Scroll right to see more
 ConditionsComfort  
Time TempWeatherWind HumidityBarometerVisibility
6:53 PM
Sat, Jun 25
88 °FSunny.8 mph61%30.03 "Hg10 mi
5:53 PM90 °FSunny.13 mph61%30.02 "Hg10 mi
4:53 PM92 °FSunny.12 mph56%30.03 "Hg10 mi
3:53 PM92 °FSunny.12 mph58%30.03 "Hg10 mi
2:53 PM93 °FSunny.10 mph56%30.05 "Hg10 mi
1:53 PM92 °FScattered clouds.7 mph58%30.06 "Hg10 mi
12:53 PM93 °FScattered clouds.10 mph58%30.07 "Hg10 mi
11:53 AM91 °FPassing clouds.8 mph60%30.07 "Hg10 mi
10:53 AM89 °FPassing clouds.6 mph65%30.08 "Hg10 mi
9:53 AM89 °FScattered clouds.6 mph63%30.08 "Hg10 mi
8:53 AM86 °FSunny.5 mph75%30.09 "Hg10 mi
7:53 AM82 °FSunny.5 mph85%30.07 "Hg10 mi
6:53 AM76 °FClear.No wind97%30.06 "Hg10 mi
5:53 AM75 °FClear.No wind96%30.04 "Hg10 mi
4:53 AM76 °FClear.3 mph97%30.03 "Hg10 mi
3:53 AM76 °FClear.No wind97%30.03 "Hg10 mi
2:53 AM77 °FClear.3 mph94%30.02 "Hg10 mi
1:53 AM77 °FClear.3 mph94%30.02 "Hg10 mi
12:53 AM77 °FClear.5 mph94%30.03 "Hg10 mi
11:53 PM
Fri, Jun 24
79 °FClear.6 mph90%30.03 "Hg10 mi
10:53 PM78 °FClear.5 mph87%30.03 "Hg10 mi
9:53 PM79 °FClear.6 mph84%30.02 "Hg10 mi
8:53 PM80 °FSunny.6 mph81%30.00 "Hg10 mi
Weather by CustomWeather, © 2016

See weather overviewHow to use our weather pages